Weather History for KDAL - September, 2012

Change the Weather History Date:

Saturday, September 29, 2012

  Actual Average Record
Temperature  
Mean Temperature 70 °F -  
Max Temperature 75 °F 83 °F 100 °F (2011)
Min Temperature 66 °F 62 °F 53 °F (1996)
Cooling Degree Days 6    
Growing Degree Days 20 (Base 50)    
Moisture  
Dew Point 66 °F    
Average Humidity 89    
Maximum Humidity 100    
Minimum Humidity 71    
Precipitation  
Precipitation 1.77 in - - ()
Sea Level Pressure  
Sea Level Pressure 29.88 in    
Wind  
Wind Speed 7 mph (NE)    
Max Wind Speed 17 mph    
Max Gust Speed 24 mph    
Visibility 4 miles    
Events Rain    
Averages and records for this station are not official NWS values.
T = Trace of Precipitation, MM = Missing Value Source: NWS Daily Summary

Daily Weather History Graph

Daily Weather History Graph

Search for Another Location

Airport or City:

Trip Planner

Search our weather history database for the weather conditions in past years. The results will help you decide how hot, cold, wet, or windy it might be!

Date:

Astronomy

Sep. 29, 2012 Rise Set
Actual Time 7:20 AM CDT 7:13 PM CDT
Civil Twilight 6:55 AM CDT 7:38 PM CDT
Nautical Twilight 6:27 AM CDT 8:07 PM CDT
Astronomical Twilight 5:58 AM CDT 8:35 PM CDT
Moon 6:49 PM CDT (9/29) 6:51 AM CDT (9/29)
Length of Visible Light 12h 42m
Length of Day
11h 53m
Full, 100% of the Moon is Illuminated
Sep 29
Full
Sep 29
Full
Oct 8
Last Quarter
Oct 15
New
Oct 21
First Quarter

Hourly Weather History & Observations

Time (CDT) Temp. Dew Point Humidity Pressure Visibility Wind Dir Wind Speed Gust Speed Precip Events Conditions
12:53 AM 75.0 °F 64.9 °F 71% 29.97 in 10.0 mi North 5.8 mph - N/A   Overcast
1:53 AM 75.0 °F 66.0 °F 73% 29.96 in 10.0 mi North 3.5 mph - N/A   Overcast
2:53 AM 73.9 °F 64.9 °F 73% 29.95 in 10.0 mi NNE 3.5 mph - N/A   Overcast
3:53 AM 73.9 °F 66.9 °F 79% 29.94 in 10.0 mi NNE 3.5 mph - 0.00 in Rain Light Rain
4:53 AM 72.0 °F 68.0 °F 87% 29.93 in 7.0 mi Calm Calm - 0.01 in Rain Light Rain
5:53 AM 71.1 °F 68.0 °F 90% 29.92 in 7.0 mi NE 5.8 mph - 0.02 in Rain Light Rain
6:53 AM 71.1 °F 68.0 °F 90% 29.94 in 6.0 mi Calm Calm - 0.01 in Rain Light Rain
7:53 AM 71.1 °F 68.0 °F 90% 29.95 in 6.0 mi Calm Calm - 0.00 in Rain Light Rain
8:53 AM 71.1 °F 69.1 °F 93% 29.95 in 5.0 mi NE 4.6 mph - 0.01 in Rain Light Rain
9:53 AM 71.1 °F 68.0 °F 90% 29.95 in 6.0 mi ENE 3.5 mph - 0.01 in   Overcast
10:53 AM 72.0 °F 69.1 °F 91% 29.96 in 5.0 mi ENE 5.8 mph - 0.01 in Rain Light Rain
11:46 AM 71.6 °F 68.0 °F 88% 29.95 in 5.0 mi ENE 5.8 mph - 0.04 in Rain Light Rain
11:53 AM 71.1 °F 66.9 °F 87% 29.94 in 5.0 mi East 4.6 mph - 0.05 in Rain Light Rain
12:42 PM 69.8 °F 68.0 °F 94% 29.94 in 2.0 mi East 3.5 mph - 0.10 in Rain Rain
12:45 PM 69.8 °F 68.0 °F 94% 29.94 in 2.0 mi SE 4.6 mph - 0.15 in Rain Heavy Rain
12:53 PM 70.0 °F 68.0 °F 93% 29.92 in 2.0 mi SE 6.9 mph - 0.26 in Rain Heavy Rain
1:32 PM 69.8 °F 66.2 °F 88% 29.92 in 3.0 mi East 8.1 mph - 0.11 in Rain Rain
1:53 PM 69.1 °F 66.9 °F 93% 29.88 in 3.0 mi East 6.9 mph - 0.19 in Rain Heavy Rain
2:07 PM 69.8 °F 66.2 °F 88% 29.89 in 3.0 mi ENE 8.1 mph - 0.06 in Rain Rain
2:35 PM 69.8 °F 66.2 °F 88% 29.87 in 3.0 mi ENE 10.4 mph - 0.11 in Rain Light Rain
2:53 PM 70.0 °F 66.0 °F 87% 29.84 in 5.0 mi ENE 8.1 mph - 0.12 in Rain Light Rain
3:44 PM 69.8 °F 66.2 °F 88% 29.84 in 2.0 mi NNE 6.9 mph - 0.08 in Rain Rain
3:50 PM 69.8 °F 66.2 °F 88% 29.84 in 1.2 mi Variable 5.8 mph - 0.11 in Rain Heavy Rain
3:53 PM 69.1 °F 66.9 °F 93% 29.83 in 1.0 mi ENE 8.1 mph - 0.14 in Rain Heavy Rain
4:26 PM 69.8 °F 66.2 °F 88% 29.83 in 2.0 mi NE 11.5 mph 23.0 mph 0.20 in Rain Rain
4:40 PM 69.8 °F 66.2 °F 88% 29.82 in 3.0 mi NE 12.7 mph 20.7 mph 0.22 in Rain Light Rain
4:53 PM 69.8 °F 66.2 °F 88% 29.82 in 3.0 mi NE 12.7 mph 20.7 mph N/A Rain Light Rain
5:02 PM 69.8 °F 66.2 °F 88% 29.82 in 2.5 mi NE 15.0 mph 19.6 mph 0.01 in Rain Rain
5:19 PM 69.8 °F 66.2 °F 88% 29.82 in 3.0 mi NE 16.1 mph 24.2 mph 0.04 in Rain Rain
5:26 PM 68.0 °F 66.2 °F 94% 29.83 in 2.0 mi NE 13.8 mph 20.7 mph N/A Rain Rain
5:41 PM 68.0 °F 66.2 °F 94% 29.83 in 1.2 mi NE 9.2 mph - 0.13 in Rain Heavy Rain
5:53 PM 68.0 °F 64.4 °F 88% 29.84 in 1.2 mi NNE 10.4 mph 17.3 mph N/A Rain Heavy Rain
6:14 PM 66.2 °F 66.2 °F 100% 29.84 in 1.2 mi NE 11.5 mph 19.6 mph 0.26 in Rain Heavy Rain
6:26 PM 68.0 °F 64.4 °F 88% 29.84 in 2.0 mi NNE 15.0 mph 21.9 mph N/A Rain Heavy Rain
6:38 PM 66.2 °F 64.4 °F 94% 29.84 in 2.5 mi NNE 16.1 mph 21.9 mph 0.41 in Rain Heavy Rain
6:45 PM 66.2 °F 64.4 °F 94% 29.83 in 4.0 mi North 15.0 mph 21.9 mph 0.45 in Rain Rain
6:53 PM 66.9 °F 64.9 °F 93% 29.82 in 3.0 mi North 17.3 mph 23.0 mph 0.47 in Rain Rain
7:17 PM 68.0 °F 64.4 °F 88% 29.85 in 4.0 mi NNE 12.7 mph 23.0 mph 0.08 in Rain Heavy Rain
7:36 PM 68.0 °F 64.4 °F 88% 29.85 in 4.0 mi North 13.8 mph 19.6 mph 0.14 in Rain Rain
7:46 PM 68.0 °F 64.4 °F 88% 29.85 in 4.0 mi North 11.5 mph - 0.17 in Rain Rain
7:53 PM 68.0 °F 64.9 °F 90% 29.84 in 4.0 mi NNE 13.8 mph 23.0 mph 0.20 in Rain Rain
8:42 PM 66.2 °F 64.4 °F 94% 29.87 in 5.0 mi NNE 17.3 mph 21.9 mph 0.13 in Rain Rain
8:53 PM 66.9 °F 64.0 °F 90% 29.85 in 5.0 mi NE 12.7 mph - 0.16 in Rain Rain
9:12 PM 66.2 °F 64.4 °F 94% 29.87 in 6.0 mi NNE 11.5 mph - 0.03 in Rain Rain
9:31 PM 66.2 °F 64.4 °F 94% 29.88 in 6.0 mi NNE 9.2 mph - 0.05 in Rain Light Rain
9:53 PM 66.9 °F 64.0 °F 90% 29.87 in 6.0 mi NNE 11.5 mph - 0.07 in Rain Light Rain
10:53 PM 66.9 °F 64.0 °F 90% 29.87 in 6.0 mi NNE 11.5 mph - 0.03 in Rain Light Rain
11:53 PM 66.9 °F 64.9 °F 93% 29.86 in 6.0 mi NE 9.2 mph 18.4 mph 0.01 in Rain Light Rain